Regional Weather Roundup
Issued by NWS Mobile, AL

Home | Current Version | Previous Version | Text Only | Print | Product List | Glossary On
Versions: 1 2 3 4 5 6 7 8 9 10 11 12 13 14 15 16 17 18 19 20 21 22 23 24 25 26 27 28 29 30 31 32 33 34 35 36 37 38 39 40 41 42 43 44 45 46 47 48 49 50
000
ASUS44 KMOB 011707
RWRMOB
REGIONAL WEATHER ROUNDUP
NATIONAL WEATHER SERVICE MOBILE AL
1200 PM CDT WED JUL 01 2015

ALZ061>064-011800-
COASTAL ALABAMA


CITY           SKY/WX    TMP DP  RH WIND       PRES   REMARKS
MOBILE REG APT MOSUNNY   86  69  56 SW8       30.13F
BROOKLEY FIELD MOSUNNY   88  70  55 SE6       30.13F
GULF SHORES    MOSUNNY   86  73  64 S9        30.13F

$$

ALZ051>060-011800-
INTERIOR SOUTHWEST AND SOUTH CENTRAL ALABAMA


CITY           SKY/WX    TMP DP  RH WIND       PRES   REMARKS
ANDALUSIA/OPP  SUNNY     91  67  44 W9        30.11F
EVERGREEN      SUNNY     88  68  51 SW12      30.11F
FLORALA        SUNNY     88  68  51 SW7       30.12F
GREENVILLE     FAIR      88  68  51 W10       30.09F

$$

FLZ001>006-011800-
WESTERN FLORIDA PANHANDLE


CITY           SKY/WX    TMP DP  RH WIND       PRES   REMARKS
CRESTVIEW      MOSUNNY   89  69  51 SW12      30.13F
DESTIN         MOSUNNY   86  75  69 SW7       30.14S HX  95
DUKE FIELD     PTSUNNY   89  69  52 SW12      30.12F
MARY ESTHER    MOSUNNY   87  71  59 SW9       30.12F
MILTON         PTSUNNY   89  71  55 SW7       30.12F HX  95
PENSACOLA      MOSUNNY   87  69  54 SW13      30.12F
NAS PENSACOLA  PTSUNNY   87  71  58 SW10      30.13F
VALPARAISO     MOSUNNY   87  74  66 SW10      30.13F HX  95

$$

...MARINE OBSERVATIONS...

STATION/POSITION TIME  SKY/WX   TEMP    WIND        PRES    VSBY
                                AIR SEA DIR/SP/G
                 (UTC)          (F)     (DEG/KT/KT) (MB)    (MI)
PASCAGOULA       1600            85     210/  4/  7 1020.6R
PETIT BOIS ISL   1600            83     220/  5/  6 1021.3R
E DAUPHIN ISLAND 1600            83     220/  5/  7 1020.6R
MIDDLE BAY LIGHT 1600            83     150/  3     1020.6R
USCG MOBILE BAY  1600            85 83  230/  5/  9 1019.5R
STATE DOCKS      1600            86 85              1020.3R
MEAHER PARK      1600            82     180/  8     1019.6S
FORT MORGAN      1600            84     270/  4/  5 1020.5R
12 S ORANGE BCH  1650            82 83  260/  4/  6 1020.1S
WVE H/P(F/S)=  1/ 5

PENSACOLA BAY    1600            87 85  210/  4/  5 1020.9R
64 S DAUPHIN ISL 1650            83 85  180/  6/  8 1021.0R
WVE H/P(F/S)=  1/ 6

67 S FORT MORGAN 1630            82     190/  8     1020.7S
115 SE PENSACOLA 1550            83 83  260/ 10/ 10 1020.4
WVE H/P(F/S)=  2/ 4

MID GULF/42001   1650            85 85  130/ 10/ 12 1020.8R
WVE H/P(F/S)=  2/ 3

EAST GULF/42003  1650            84 85   80/ 14/ 16 1019.9F
WVE H/P(F/S)=  2/ 8


$$

...NEARBY LOCATIONS

CITY           SKY/WX    TMP DP  RH WIND       PRES   REMARKS
GULFPORT       SUNNY     86  71  60 SW8       30.11F
BILOXI         NOT AVBL
PASCAGOULA     SUNNY     86  71  60 SW6       30.12F
HATTIESBURG    SUNNY     88  68  51 W10       30.11F
LAUREL         SUNNY     86  70  58 SW10G16   30.13R
MERIDIAN       SUNNY     87  65  47 W16G23    30.09S
MERIDIAN NAS   MOSUNNY   87  68  52 W13       30.08S
MONTGOMERY     MOSUNNY   87  73  62 S10       30.09S
MAXWELL AFB    MOSUNNY   86  74  67 W7        30.08S
TROY           SUNNY     87  71  58 SW14G26   30.11S
FORT RUCKER    SUNNY     88  68  51 W13G20    30.09F
DALEVILLE      SUNNY     88  69  53 SW13G21   30.10F
DOTHAN         SUNNY     87  70  56 W12G20    30.14F

$$

...OTHER SURROUNDING LOCATIONS...

CITY           SKY/WX    TMP DP  RH WIND       PRES   REMARKS
BIRMINGHAM     CLOUDY    82  71  69 SW6       30.10R
TUSCALOOSA     PTSUNNY   84  71  65 SW7       30.07R
COLUMBUS GA    MOSUNNY   81  70  69 W5        30.08S
PANAMA CITY    NOT AVBL
TALLAHASSEE    MOSUNNY   90  71  53 SW8       30.11F HX  96
BATON ROUGE    PTSUNNY   88  76  67 SW12      30.11S HX  99
NEW ORLEANS    PTSUNNY   88  74  63 S12       30.12F HX  96
SLIDELL        SUNNY     88  71  57 SW6       30.11F
JACKSON        MOSUNNY   86  69  56 SW12      30.10R
MCCOMB         MOSUNNY   86  75  69 SW12      30.12S HX  95

$$

...SURROUNDING MARINE OBSERVATIONS...

STATION/POSITION TIME  SKY/WX   TEMP    WIND        PRES    VSBY
                                AIR SEA DIR/SP/G
                 (UTC)          (F)     (DEG/KT/KT) (MB)    (MI)
WAVELAND         1600            83 85  190/  6/ 12 1020.5R
PASCAGOULA RGN A 1600            85     230/  5/  6 1020.3R
PASCAGOULA PORT  1600               83                N/A
GRAND ISLE       1600            85 84  200/  7/ 10 1020.7R
SOUTHWEST PASS   1600            83     180/ 12/ 13 1020.8R
PILOT STATION E  1600            83 83  180/ 10/ 11 1021.1R
SHELL BEACH      1600            84 83  220/  8/ 11 1019.9R
PANAMA CITY      1600            83 82  240/ 10/ 11 1020.2R
APALACHICOLA     1600            85 84  290/  5/ 12 1020.0F
TYNDALL TOWER C  1700            82     270/  4/  5 1020.0F
S APLCHCLA/42036 1650            85 85  200/  4/  4 1019.9F
WVE H/P(F/S)=  2/ 5


$$



USA.gov is the U.S. government's official web portal to all federal, state and local government web resources and services.